Zurück zum Katalog

PRSC-S1

AktivWissenschaftVLEO
NORAD 65055·PAYLOAD·🇨🇳 China

Gestartet Jul 31, 2025 von Xichang Satellite Launch Center

Loading…

Nächste Überflüge (nächste 24 Stunden)

TLE

AktuellSource: Space-Track

Epoche: Sep 14, 2026, 16:20 UTC

1 65055U 25164A   26257.68056198  .00003721  00000-0  25531-3 0  9996
2 65055  41.1295 143.5438 0007993 247.6873 112.3093 15.07058362 61933

Verfolge PRSC-S1 in Echtzeit mit AllMySat

Download on the App Store